RH
20 23 37 36 57 72 64 52 52 48 47 42 40 48 66 90 84 62 97 94 94 94 94 93 92 89 90 88 89 89 87 89 88 88 88 88 88 88 88 87 84 81 81 80 77 77 77 74 71
20 34 38 48 65 72 67 59 53 46 42 42 43 52 63 94 84 91 94 100 96 96 92 90 90 88 90 87 87 89 88 88 87 88 87 88 89 80 75 74 74 74 74 72 71 72 73 72 68
29 34 37 61 80 68 67 56 52 43 43 41 40 52 67 92 84 86 94 99 96 96 91 88 88 89 92 87 88 88 90 88 88 87 88 88 79 73 72 71 70 72 71 71 66 66 68 65 60
35 38 39 61 60 57 58 49 44 39 40 39 44 69 74 76 82 90 99 96 93 93 91 86 87 88 88 88 87 89 90 87 83 82 83 81 76 68 66 65 64 67 69 67 69 64 63 60 62
38 43 48 58 52 55 62 49 45 33 41 51 50 76 81 87 91 97 95 93 93 92 87 84 90 87 88 88 89 90 83 79 80 79 77 72 66 63 62 61 61 63 68 75 62 60 57 61 55
42 42 55 61 55 47 51 46 41 36 50 58 58 68 89 89 90 94 93 92 94 89 85 87 87 89 89 88 85 74 74 74 73 71 72 72 66 62 61 60 59 64 69 68 61 58 58 58 53
40 47 46 47 52 46 46 44 41 55 56 66 57 78 86 80 90 93 90 90 89 88 88 86 87 89 87 78 71 71 71 69 65 59 60 64 66 67 64 60 67 65 67 61 61 59 60 56 53
41 44 42 45 52 45 35 37 42 51 56 59 60 71 86 80 94 93 90 88 87 87 86 77 63 45 46 62 70 68 69 70 76 72 55 52 55 53 67 71 65 65 63 61 60 60 57 56 52
30 37 49 38 45 39 35 41 47 52 58 58 60 61 74 90 92 92 92 90 89 87 77 53 31 42 48 59 71 70 69 52 50 50 50 51 52 51 49 64 67 66 64 60 63 60 58 47 36
26 34 29 26 35 30 26 37 56 60 64 68 80 80 87 90 90 93 95 96 92 86 68 50 41 44 47 49 50 51 49 49 49 49 52 53 54 49 50 53 50 50 52 44 46 50 42 41 39
23 26 22 20 26 30 28 36 44 58 67 66 82 84 83 85 86 88 89 88 83 78 66 58 47 48 49 48 51 51 50 52 54 53 55 59 57 54 46 50 50 45 42 42 46 46 46 46 45
22 20 19 17 14 24 33 43 50 46 46 59 70 72 76 76 80 81 87 89 85 80 71 67 54 56 56 53 56 54 52 54 52 56 61 60 58 54 48 48 48 45 45 48 50 50 50 50 50
19 16 13 13 38 38 38 42 51 72 62 64 65 67 71 70 72 75 83 86 84 83 73 70 62 58 56 52 51 54 53 51 57 62 61 59 54 48 42 47 48 48 50 52 53 55 55 54 53
14 13 13 23 36 35 43 47 50 69 64 67 61 66 64 64 67 74 81 88 87 85 77 76 58 51 51 52 52 51 51 53 58 63 60 57 49 43 40 46 50 52 53 54 55 56 56 54 52
13 14 14 31 38 36 32 38 60 67 63 69 67 63 61 59 64 69 74 80 80 69 57 56 55 55 54 50 50 50 56 60 62 64 58 54 48 43 41 43 47 52 54 57 58 56 56 55 55
14 17 18 19 30 31 32 45 76 65 66 72 64 62 62 66 64 66 64 64 61 62 63 62 70 61 52 50 50 55 58 57 61 62 57 53 47 43 44 44 46 47 48 58 59 60 58 57 57
22 19 17 17 43 35 43 56 70 63 64 67 69 66 63 64 61 60 63 64 61 63 73 70 60 57 55 53 52 48 52 54 54 65 59 45 43 44 48 50 53 52 51 54 58 62 59 58 59
20 18 17 20 47 63 81 91 76 68 69 76 73 72 72 72 67 62 61 61 65 64 60 58 57 54 51 48 45 44 49 50 56 50 44 43 47 48 52 55 56 54 58 56 59 63 61 61 62
16 18 19 42 44 56 71 87 82 72 78 85 82 77 76 69 58 57 58 56 53 51 50 50 47 47 46 45 45 40 45 42 42 43 42 42 51 53 56 57 52 55 57 58 62 66 66 64 68
19 20 41 46 45 56 69 75 70 73 74 78 77 74 69 62 58 58 59 57 54 53 50 48 48 48 46 44 42 44 43 47 47 46 46 46 47 50 56 54 57 59 62 63 62 66 71 70 71
20 22 37 46 50 51 53 63 71 66 66 63 64 62 62 61 58 58 65 58 55 52 52 51 49 48 46 42 41 40 41 44 46 48 49 54 55 57 59 59 60 62 60 58 60 64 70 76 73
22 21 38 48 55 69 43 90 63 71 72 68 68 67 64 58 61 63 67 59 55 55 57 50 49 47 44 44 44 45 47 50 51 54 53 51 50 48 59 54 52 50 51 54 58 63 66 68 75
18 32 39 40 41 51 56 79 72 70 80 78 76 68 64 67 62 66 66 59 56 58 54 51 49 45 45 45 46 47 47 50 52 52 49 49 45 48 47 48 50 51 55 58 60 67 65 67 74
11 13 21 26 27 50 55 67 76 75 70 72 68 71 64 62 66 73 64 60 58 59 56 56 50 45 44 45 47 48 49 50 49 46 46 47 43 43 46 46 49 48 49 53 52 62 66 72 78
15 19 28 27 56 64 50 60 64 52 59 64 75 70 63 64 78 76 66 62 59 64 64 60 45 44 45 47 47 47 45 44 42 41 42 43 42 42 43 44 44 46 49 52 48 50 57 75 82
15 19 32 27 58 68 55 75 69 62 63 64 61 62 64 72 79 77 67 63 69 72 64 51 45 44 45 47 47 43 40 36 35 39 39 39 41 41 41 43 44 44 46 49 47 47 62 75 57
16 21 22 56 60 69 74 68 58 61 68 64 64 63 70 74 82 75 67 70 68 67 70 55 44 43 45 47 41 32 34 34 34 35 37 38 38 39 39 41 44 44 45 50 51 61 71 58 58
16 19 25 43 62 73 77 72 76 70 71 66 66 70 73 77 77 73 75 72 70 69 53 44 42 40 44 38 29 30 33 34 37 40 43 42 41 41 42 45 47 43 46 54 60 69 62 67 72
21 21 32 39 61 77 88 82 55 60 62 66 67 68 73 78 74 78 76 74 71 62 47 45 40 38 38 28 30 32 34 38 42 43 45 41 42 41 46 44 40 45 54 60 65 69 77 87 92
17 18 30 36 36 80 77 79 66 61 59 63 67 67 72 71 75 79 76 76 71 62 49 44 38 35 27 29 33 36 38 39 40 42 39 38 37 42 41 44 50 51 54 64 73 81 86 93 97
Wind_Speed
8 9 5 2 4 5 3 4 1 6 4 2 4 5 7 5 3 1 7 6 23 20 18 15 14 13 12 12 12 12 12 13 14 14 14 14 15 15 16 17 18 18 18 18 19 19 19 19 19
13 8 2 2 5 4 5 4 5 2 4 2 4 3 4 4 4 7 7 17 23 21 18 16 14 13 13 12 12 12 13 13 13 13 13 14 14 16 17 17 17 17 18 18 19 18 18 18 19
11 3 3 4 3 3 4 4 5 3 2 3 4 6 5 3 5 9 13 23 22 20 18 15 14 14 13 13 13 13 13 13 12 13 13 14 15 17 17 17 18 17 17 18 19 19 18 19 19
2 5 4 4 5 4 4 2 4 4 6 8 1 7 5 10 6 10 25 23 23 21 18 15 14 13 13 13 13 12 12 12 13 13 13 13 14 16 17 17 17 17 15 17 17 19 18 18 18
3 2 4 1 4 2 5 5 3 5 6 11 4 3 4 7 15 25 23 22 25 23 17 14 14 13 13 13 13 12 12 12 12 12 12 13 13 12 14 15 15 15 15 15 17 17 16 16 18
3 3 3 1 5 2 4 6 3 1 3 4 7 5 4 16 18 21 23 25 23 23 19 15 14 13 13 14 13 13 13 13 11 11 10 10 13 12 12 13 13 13 14 15 15 17 15 16 17
4 3 3 2 4 3 5 6 4 4 5 4 9 6 5 14 23 25 28 26 23 20 20 17 16 14 13 13 14 14 12 10 10 10 10 9 11 13 13 11 13 13 12 13 15 16 15 16 16
4 4 1 5 3 5 5 6 9 6 0 2 3 5 6 17 26 28 27 25 22 20 18 14 15 16 17 15 13 12 10 10 10 10 9 8 8 12 11 13 13 11 13 13 16 16 16 16 17
3 3 3 4 4 4 7 6 3 5 6 2 1 3 16 37 36 32 28 24 21 19 16 15 17 16 16 15 11 10 9 9 9 10 11 10 11 12 11 13 13 13 14 15 15 14 14 16 15
4 4 8 6 5 5 4 7 8 6 4 3 10 21 32 34 32 28 23 20 21 20 18 16 17 16 16 13 10 9 7 9 8 8 11 11 13 14 13 12 13 14 16 16 14 13 14 16 17
5 6 4 8 9 9 6 2 3 16 4 6 11 19 23 27 24 24 22 24 25 21 19 17 16 14 12 11 9 8 6 6 5 8 9 11 14 16 15 13 13 16 17 16 13 14 17 18 19
3 7 6 8 6 4 9 7 5 5 4 12 20 22 24 20 20 21 20 22 24 22 17 15 12 9 7 8 6 7 5 3 6 7 9 12 15 17 16 13 15 16 17 15 15 17 18 18 18
5 6 7 5 3 9 10 5 7 4 11 23 24 22 19 19 18 14 18 21 23 19 16 13 9 6 8 10 8 7 5 4 6 6 10 13 16 18 17 14 14 15 14 15 16 16 18 19 20
4 5 7 5 3 3 8 4 5 3 13 19 18 15 14 16 15 16 20 22 21 16 13 11 11 13 11 9 8 6 5 6 6 6 8 11 15 17 19 17 16 16 16 16 16 15 17 20 21
3 4 4 3 3 5 9 6 5 10 12 16 12 10 8 12 17 16 21 22 23 21 21 18 14 11 7 7 5 7 7 7 7 3 6 9 12 16 18 18 17 17 17 16 15 16 17 19 21
1 5 4 2 2 5 3 0 8 7 12 11 16 17 17 17 23 26 25 27 26 21 18 14 9 6 6 5 6 10 9 9 7 4 6 9 13 15 16 18 17 19 18 17 18 18 21 21 22
8 2 2 1 13 3 6 3 7 11 17 17 16 18 17 17 23 23 23 26 24 21 14 11 9 7 6 7 9 12 10 10 11 6 7 13 14 15 16 15 15 19 18 18 20 17 20 21 21
2 0 2 3 8 20 20 16 13 13 19 16 17 16 17 16 15 20 26 26 22 18 14 12 10 8 8 9 10 13 13 14 14 12 11 12 11 13 14 13 15 17 16 18 19 17 17 19 18
2 3 3 2 7 11 12 15 14 14 15 14 14 15 14 13 16 20 23 23 21 17 15 13 12 14 15 19 20 20 20 16 16 15 15 12 9 12 13 13 17 17 17 20 19 18 18 17 16
4 4 4 9 13 13 15 15 11 11 10 11 15 13 13 13 10 17 20 18 18 17 15 15 15 17 20 21 19 14 13 13 14 16 18 16 15 13 13 14 15 18 19 18 18 16 15 12 14
5 4 9 8 18 17 16 8 7 10 11 10 9 11 10 12 12 12 16 16 16 16 14 14 15 18 19 20 18 17 14 14 18 19 18 17 15 14 16 13 16 16 17 18 17 15 12 10 15
6 6 13 21 9 5 4 3 3 5 7 7 9 8 9 9 9 14 14 14 14 14 12 13 15 17 17 16 17 18 17 15 15 16 16 17 17 18 14 17 16 17 18 17 16 13 13 14 13
9 17 18 14 5 7 3 6 3 7 6 9 8 10 9 9 7 10 15 15 12 12 12 12 14 15 14 14 15 15 15 14 15 14 15 16 18 17 17 17 16 18 17 17 17 14 15 13 11
5 7 5 5 3 4 1 5 4 6 6 8 10 9 10 8 8 13 15 12 11 11 12 12 11 11 11 12 14 15 15 14 15 16 18 18 20 21 17 18 17 17 17 17 19 17 17 15 12
5 6 3 3 4 2 3 4 2 5 10 12 13 10 9 9 7 9 12 9 10 10 9 9 8 9 9 10 13 14 14 14 15 16 18 19 21 22 20 20 20 19 19 17 19 20 20 16 15
2 6 5 5 4 3 4 2 2 3 9 10 10 11 9 7 6 8 10 9 9 8 9 8 7 8 8 9 11 13 12 14 18 17 18 19 21 22 22 23 22 21 20 19 19 21 17 15 22
2 1 4 7 3 4 1 2 3 5 8 9 9 10 8 7 7 8 11 9 8 8 6 6 6 7 7 9 11 14 13 15 19 19 20 21 22 23 24 24 23 22 22 20 20 18 17 25 30
4 2 2 3 4 1 3 3 3 8 8 8 9 8 7 6 7 9 11 8 7 7 8 7 6 7 8 10 13 14 15 16 19 21 22 22 24 25 25 24 22 21 23 19 17 18 26 30 31
4 3 5 5 4 5 3 4 1 12 13 13 9 8 11 10 8 8 10 7 7 8 8 7 7 8 8 10 13 16 15 18 20 22 23 23 23 24 23 21 22 23 19 15 18 26 28 29 28
5 3 4 4 2 3 3 4 6 8 11 10 8 8 7 8 7 11 10 8 8 8 6 8 8 8 9 11 15 17 16 20 22 22 23 21 24 22 22 23 21 20 16 19 24 29 30 28 26
Wind_Direction
156 149 128 47 50 59 311 313 8 356 23 113 25 34 103 49 27 198 115 153 149 145 140 137 132 126 120 112 105 98 91 83 74 73 69 63 59 53 47 42 36 31 29 26 23 20 19 19 18
153 139 64 78 72 35 301 277 330 283 262 267 144 128 42 73 66 118 106 144 145 140 140 132 128 123 117 109 103 96 90 82 78 74 71 65 59 52 45 40 36 31 28 26 23 21 20 19 17
139 50 82 92 120 168 236 218 233 252 336 29 68 52 31 37 121 134 147 144 143 137 130 127 126 123 111 110 101 95 90 84 77 75 69 66 60 51 46 44 36 32 32 25 26 22 20 17 15
152 17 33 86 195 224 224 168 237 222 103 62 183 64 94 35 156 149 142 145 136 129 127 129 125 117 111 105 101 97 92 86 80 73 68 64 56 49 42 38 36 32 31 26 15 15 15 17 16
70 64 55 87 268 265 253 293 347 19 78 45 41 43 53 51 116 130 138 139 132 127 127 126 117 112 109 104 101 94 90 84 79 74 68 58 47 37 32 28 26 24 22 18 12 11 11 17 15
36 89 71 228 258 212 250 223 119 168 132 135 74 89 67 119 118 136 140 136 132 126 128 123 113 111 108 106 98 93 88 83 76 67 59 46 31 18 15 13 13 12 11 10 12 10 14 6 6
121 85 218 227 268 303 229 162 198 114 145 224 139 97 143 148 144 147 143 139 138 134 131 130 128 118 111 105 103 92 86 77 65 55 53 37 24 26 15 10 9 3 8 12 11 6 5 3 3
116 95 233 242 231 264 188 140 151 119 318 104 158 172 203 154 141 138 140 138 142 143 140 134 128 119 113 110 101 92 81 63 53 50 36 34 25 17 24 18 21 30 21 9 3 1 359 359 2
130 68 238 260 181 247 157 149 110 72 117 4 16 77 111 133 139 135 137 139 144 146 144 138 126 122 118 113 109 99 82 65 53 41 38 28 18 10 1 23 32 23 13 7 1 3 6 359 351
129 155 216 210 218 226 192 163 141 110 113 52 69 87 120 134 136 137 143 149 155 154 153 142 135 132 131 126 119 110 88 69 60 39 14 29 25 20 12 20 17 12 8 360 357 6 1 355 348
188 216 217 235 227 223 170 123 106 130 220 180 167 144 136 139 142 149 157 161 166 162 157 153 148 142 140 139 134 133 103 82 50 24 27 20 20 18 16 11 6 5 5 359 3 2 2 356 349
239 262 232 283 247 210 163 119 107 140 189 139 140 139 144 141 153 163 156 164 165 164 163 157 159 151 151 157 159 151 107 64 17 26 16 17 21 20 16 10 7 10 9 12 8 4 0 359 353
210 259 257 297 110 130 144 135 115 42 124 127 133 137 144 152 165 154 155 160 161 161 164 167 166 188 165 155 149 142 118 38 35 18 13 14 18 15 13 12 7 15 17 11 4 6 6 1 355
218 268 285 212 142 100 105 92 82 89 116 116 128 142 155 150 149 131 136 143 154 156 162 175 154 142 149 138 124 95 65 23 11 353 8 11 11 12 11 7 3 5 7 6 6 9 5 360 356
253 303 346 34 145 75 83 9 42 126 126 126 129 124 131 118 126 114 122 133 143 139 137 138 132 136 135 116 89 62 34 6 23 17 12 10 10 8 13 11 7 7 1 2 8 6 2 359 357
333 49 23 30 14 341 78 155 88 106 103 80 83 78 77 78 95 104 109 114 118 116 118 114 111 121 103 78 59 18 32 13 12 346 346 2 359 4 11 15 15 9 4 359 0 359 357 355 354
12 233 278 162 1 138 43 44 111 89 96 88 83 85 83 83 81 89 95 103 115 113 106 110 106 83 61 47 22 26 21 17 12 337 353 355 354 358 2 8 9 4 0 356 352 351 350 349 349
241 328 306 13 19 70 78 70 76 77 89 95 92 87 86 80 75 82 100 110 108 109 104 90 77 62 43 31 30 26 31 31 45 38 6 344 338 344 350 359 1 357 354 352 350 344 347 346 345
209 221 66 104 158 58 78 77 82 85 83 92 97 103 95 91 98 90 95 106 106 97 86 72 60 48 39 35 33 40 49 40 32 33 25 11 337 331 341 354 352 354 351 351 350 344 344 345 346
216 263 103 77 86 92 86 72 77 100 106 120 123 120 116 112 90 89 96 94 90 85 76 67 63 52 45 37 34 31 32 33 34 25 23 23 23 16 13 349 352 350 347 349 351 347 342 334 347
244 203 179 121 88 117 100 66 81 88 103 114 114 117 114 117 116 110 100 101 87 74 68 67 61 51 43 34 29 28 26 21 14 12 16 20 19 10 357 356 353 354 352 348 348 346 344 333 339
260 143 132 145 142 165 133 165 154 136 127 128 128 116 115 106 114 119 114 101 88 82 74 69 58 48 40 32 31 28 26 18 9 7 7 2 359 354 358 354 353 350 348 346 345 341 341 336 329
225 146 156 170 128 112 52 89 239 143 174 169 152 138 129 137 149 125 129 112 96 85 71 68 53 45 36 32 28 27 21 14 5 3 358 358 357 356 352 352 350 349 346 345 339 326 327 329 323
116 110 57 55 71 53 323 123 232 190 184 137 133 138 138 140 125 130 123 113 101 80 70 53 48 45 37 30 30 24 15 9 4 1 357 354 354 355 354 349 343 343 343 336 337 323 317 308 303
74 67 359 359 32 193 308 52 5 217 149 163 149 150 150 134 144 133 130 125 91 73 67 51 55 48 35 32 28 21 13 8 4 358 355 351 349 349 348 340 336 331 327 323 326 324 317 302 300
88 138 154 205 181 208 18 88 319 54 96 119 130 139 130 139 138 138 148 125 91 80 74 61 57 35 28 30 25 14 9 10 5 358 353 349 341 340 339 335 330 326 318 315 317 322 320 312 310
170 48 158 109 57 86 162 61 7 85 92 113 132 141 145 148 143 154 149 119 94 94 69 79 48 31 31 34 19 12 10 9 5 359 352 349 346 341 338 335 330 326 320 315 316 319 319 320 320
117 141 61 25 137 157 245 215 200 185 161 153 160 153 143 139 146 153 142 118 106 86 85 78 52 47 45 31 20 16 9 7 3 359 354 349 346 343 342 339 337 335 328 320 323 327 326 327 325
18 27 54 106 109 149 181 254 264 186 169 168 174 159 158 160 157 144 132 110 83 94 106 76 59 47 52 31 24 16 14 8 3 358 355 351 349 350 348 350 343 337 336 337 336 334 333 327 321
92 97 108 110 195 64 119 271 341 142 153 150 159 147 140 142 131 132 126 115 90 95 82 67 55 62 44 35 27 20 15 10 5 0 357 358 354 353 355 352 352 352 346 341 341 339 334 326 322